Wind_Speed
32 33 34 36 40 43 45 48 51 54 55 57 58 59 59 58 58 57 57 57 56 56 57 59 62 64 67 70 71 70 70 69 67 64 63 63 63 65 65 62 59 57 55 55 55 55 53 51 49 47 44 42 39 38 36 36 36 36 38 39 40 40 39 39 39 39 39 38 37 37 36 34 33 31
30 30 30 32 35 39 42 46 49 52 54 56 59 60 60 60 60 60 60 59 58 57 58 59 60 63 66 69 71 73 73 72 70 67 66 65 65 67 68 66 63 60 58 56 55 56 57 54 51 49 47 45 43 41 39 38 37 36 36 38 39 40 40 40 40 40 40 40 39 38 38 37 36 34
29 29 29 30 33 36 39 42 46 50 53 55 58 60 61 61 61 61 61 62 61 58 58 60 61 62 65 68 70 72 75 76 73 69 68 68 67 68 69 69 66 64 62 60 57 57 58 57 54 51 48 46 45 43 41 40 39 38 37 37 37 39 40 40 40 40 41 41 40 40 39 39 38 37
30 29 30 31 33 36 37 40 43 46 50 53 56 59 61 62 62 63 63 64 65 62 59 60 61 62 63 67 70 71 74 77 77 73 71 70 69 68 70 71 69 67 66 65 61 58 59 60 57 53 50 47 46 45 43 41 40 39 38 37 37 37 38 39 40 41 41 41 42 41 41 40 40 40
31 31 31 32 34 37 39 40 42 44 47 49 53 57 60 62 63 64 65 65 66 67 64 61 61 62 63 66 70 72 73 75 77 76 74 73 71 69 70 72 72 70 68 66 64 61 61 61 59 56 52 49 47 46 44 43 42 41 40 39 37 37 37 38 40 41 42 42 42 43 42 42 42 41
33 32 32 33 35 38 40 41 43 44 45 47 50 53 58 61 63 64 65 66 67 69 68 64 61 61 62 65 69 72 73 74 75 77 77 75 73 71 70 72 73 72 70 68 65 63 63 62 60 57 54 50 48 47 46 44 44 43 42 41 39 38 37 38 39 41 42 42 43 44 44 43 43 43
34 33 33 35 36 38 40 42 44 46 46 46 48 50 54 58 61 63 65 67 68 69 70 69 65 62 61 65 68 71 74 75 74 76 79 78 76 73 71 72 73 73 72 70 67 65 65 63 61 58 55 52 49 48 47 46 45 45 45 43 42 40 39 39 40 41 41 42 43 44 45 45 45 45
35 35 35 37 39 40 42 44 45 47 47 47 47 48 51 55 58 61 64 66 68 69 70 71 69 64 62 64 68 71 74 76 74 75 79 80 79 76 73 72 72 73 73 71 68 67 66 65 62 60 57 55 51 49 48 48 47 47 47 46 44 42 41 40 40 41 42 43 43 44 45 46 46 46
37 37 37 40 43 43 44 46 47 48 48 48 47 47 49 52 56 59 62 65 67 69 71 72 71 68 64 64 67 70 73 77 76 75 78 80 80 78 76 75 74 73 73 72 69 68 68 66 64 61 59 57 54 51 50 49 49 48 48 48 47 45 43 41 41 41 43 44 45 45 45 46 47 48
37 37 39 44 47 46 47 49 50 49 48 48 47 47 48 51 53 57 60 63 65 68 71 73 73 70 66 64 67 69 73 76 78 76 77 79 81 80 77 76 76 75 73 72 70 69 69 67 64 62 61 59 56 53 51 50 50 49 49 49 48 46 45 43 42 42 42 43 45 46 47 46 47 48
38 41 46 50 50 49 50 51 51 50 49 48 47 46 48 50 52 54 57 60 63 66 69 72 73 72 68 65 66 69 72 76 78 78 77 78 80 81 79 77 78 76 74 72 71 70 69 67 64 62 61 60 58 55 51 50 49 49 49 49 48 47 46 45 43 42 42 42 43 46 48 48 48 48
47 50 53 54 52 52 52 51 51 50 50 50 49 48 48 50 51 53 55 57 60 63 66 69 72 73 70 66 66 68 71 76 78 78 78 78 80 81 80 78 78 77 75 73 72 71 70 67 64 62 61 59 58 56 53 50 49 49 49 49 48 47 46 45 43 42 42 42 42 44 47 49 49 49
54 54 55 55 55 56 55 53 51 50 50 50 50 50 50 50 51 52 53 54 57 60 64 66 68 71 71 68 66 68 71 75 78 78 78 79 80 81 81 80 79 78 77 75 73 72 71 68 65 63 62 60 59 57 54 51 49 49 48 48 47 45 44 42 41 41 41 41 42 43 45 48 50 50
57 56 58 59 59 60 58 56 53 51 50 50 50 51 51 51 51 51 51 52 54 57 60 63 65 66 68 68 66 67 69 73 77 78 78 79 80 82 82 82 81 80 78 77 75 74 73 70 67 65 63 62 61 58 55 52 50 49 48 46 44 42 41 40 40 40 40 40 41 42 44 46 49 51
63 62 63 64 64 64 62 59 55 52 51 51 51 51 51 51 51 51 51 51 52 54 57 60 62 63 65 66 66 67 68 71 76 78 78 79 81 82 83 83 82 81 79 78 77 76 75 72 69 67 66 64 62 59 57 53 50 49 47 44 42 40 39 39 39 38 38 38 38 39 40 43 46 49
68 68 68 68 68 67 65 61 57 53 52 52 51 51 51 51 51 50 50 50 50 51 54 57 58 59 63 65 66 67 68 70 74 78 79 80 81 82 83 84 84 82 80 79 78 78 77 74 72 70 69 67 64 61 58 53 50 49 47 43 41 40 39 38 37 36 36 35 35 36 37 39 42 47
72 72 72 73 73 72 67 62 58 56 55 53 52 52 51 50 49 49 48 48 48 49 51 53 55 57 60 64 66 67 68 70 74 78 80 81 81 81 84 86 86 84 81 79 78 78 77 75 73 71 70 69 66 64 60 54 51 50 47 44 42 40 39 38 37 36 35 34 34 34 34 36 39 44
75 75 76 77 78 75 70 64 60 58 57 55 52 52 51 49 48 47 46 45 45 46 48 50 52 54 58 62 65 67 69 70 73 78 81 82 82 82 84 87 88 85 81 78 78 78 76 74 72 70 70 70 68 66 61 55 53 51 47 45 43 41 39 37 36 35 34 33 33 32 33 34 36 40
77 78 79 80 79 77 72 66 61 59 58 55 53 52 51 50 47 45 44 42 42 44 46 48 50 52 55 60 64 68 70 70 72 76 80 83 83 82 83 87 89 87 82 79 78 79 77 74 71 70 71 70 68 66 61 56 53 52 49 46 44 42 40 38 36 35 34 34 32 32 32 33 34 37
80 80 80 80 79 76 72 67 62 60 59 56 53 52 52 50 47 44 42 40 40 42 44 47 48 50 52 57 63 67 70 71 72 75 79 82 83 82 83 87 90 89 85 80 78 79 79 75 72 72 72 70 68 65 61 56 54 52 50 48 46 44 42 40 38 37 36 35 33 32 31 32 33 34
83 83 82 80 78 75 71 67 64 62 60 57 53 52 51 49 46 43 41 39 38 40 42 45 46 47 49 54 60 66 69 70 71 73 77 81 82 82 83 87 91 91 87 82 80 80 80 76 73 74 73 70 68 66 61 57 54 53 52 50 48 46 44 41 40 39 38 37 35 33 32 33 33 34
85 85 83 80 77 73 69 66 64 63 61 58 53 51 50 49 45 42 40 37 36 38 40 43 44 45 46 51 57 63 67 70 70 72 76 80 82 84 84 87 90 91 87 84 81 81 81 78 75 75 74 71 69 67 63 57 54 54 53 51 49 48 45 43 41 40 40 39 37 35 33 33 34 35
87 87 84 80 76 72 67 64 64 63 61 58 53 49 49 48 44 41 38 36 35 36 38 40 42 42 44 48 53 59 64 68 70 71 75 79 82 85 86 87 89 89 88 85 83 82 83 80 77 76 76 73 71 69 65 59 56 54 54 52 50 48 46 44 42 41 41 41 40 37 35 34 34 36
89 88 84 79 75 71 66 64 63 61 59 56 51 48 47 46 43 39 36 34 34 34 35 37 39 40 41 44 49 54 60 66 69 71 74 78 81 84 87 87 88 89 90 88 86 84 85 83 79 77 76 75 73 72 67 62 57 54 53 52 51 49 47 46 45 44 44 43 41 39 37 35 35 37
90 88 84 79 74 69 66 64 63 60 56 53 49 46 45 43 40 37 34 33 32 32 32 34 36 37 38 41 46 50 55 62 67 70 73 76 79 83 87 89 88 89 91 90 88 87 86 83 80 77 75 74 73 72 69 64 59 55 53 52 52 51 49 48 47 46 45 45 43 41 39 38 37 37
90 87 83 78 73 68 65 63 60 57 54 51 47 43 42 40 37 35 33 31 30 30 30 31 33 34 35 38 42 46 50 56 63 68 72 75 78 82 87 90 89 90 92 92 90 89 86 83 81 78 75 73 72 71 70 68 64 59 56 55 54 52 50 50 49 48 47 46 46 44 41 39 38 38
89 85 81 76 72 68 64 60 57 53 50 48 44 41 39 37 34 33 31 29 28 28 27 28 30 32 33 36 39 42 46 52 59 65 70 74 77 81 87 89 90 91 92 91 90 90 87 83 80 77 75 73 71 70 70 71 69 66 63 61 58 54 51 50 49 49 47 46 46 45 43 41 40 38
87 83 79 75 70 65 61 57 53 49 46 44 42 39 36 33 32 30 28 27 26 25 24 25 28 30 32 34 36 39 43 48 54 61 67 72 77 81 85 88 90 90 90 89 90 90 87 82 78 75 74 72 69 68 70 71 71 69 67 64 61 57 53 51 51 50 48 46 46 45 44 43 42 39
83 80 77 73 68 61 57 53 49 45 43 41 39 37 33 30 29 28 27 26 24 23 22 23 26 28 30 32 34 36 39 45 51 57 63 69 75 80 84 87 89 89 88 88 90 90 88 83 77 73 72 70 69 68 69 70 70 69 67 65 62 59 55 52 52 52 50 49 47 46 45 45 43 39
79 76 72 69 63 57 53 50 45 42 40 38 36 35 31 28 28 27 26 25 23 21 22 23 24 26 28 30 32 33 36 40 46 53 59 65 72 78 82 85 87 87 87 88 90 91 88 83 77 72 69 68 67 67 68 68 68 67 66 64 62 60 57 55 54 54 53 52 51 48 46 44 43 41
75 70 66 62 56 52 49 45 41 39 37 35 34 32 29 27 27 27 26 24 22 21 21 22 23 24 26 27 28 30 32 36 42 48 54 61 67 74 79 83 85 86 86 88 90 90 89 85 79 74 69 66 65 66 66 66 65 65 64 63 62 61 60 57 55 54 54 53 52 50 48 45 44 43
68 64 58 54 51 49 45 41 38 36 35 33 32 30 28 26 27 27 26 24 21 20 20 20 20 21 21 22 24 26 29 33 38 44 50 56 63 69 74 79 81 83 85 86 88 89 89 86 81 77 73 70 68 67 65 63 62 63 63 63 62 62 61 58 55 53 53 52 51 51 50 49 47 45
61 56 51 48 47 45 41 37 35 34 33 31 30 29 27 27 29 28 26 24 22 20 18 17 16 16 17 18 20 22 26 30 35 39 45 51 58 65 71 75 78 81 83 85 86 87 88 86 83 80 77 73 69 67 64 62 62 63 63 64 63 63 62 61 58 54 52 51 50 50 51 51 48 47
55 50 46 45 43 40 36 33 33 33 32 30 29 28 27 29 31 29 27 25 22 19 18 16 15 14 15 16 16 18 23 27 32 36 42 47 53 61 68 72 76 79 82 85 86 86 86 85 83 81 78 75 71 69 67 66 65 64 64 63 63 63 63 63 61 57 54 52 51 50 50 51 50 49
51 46 43 41 40 37 34 32 31 31 30 29 28 28 29 32 33 31 28 26 23 20 19 17 15 14 15 15 14 15 19 24 29 35 40 46 52 58 65 70 73 77 81 83 84 85 85 84 83 81 80 78 75 73 71 70 69 67 64 63 63 63 63 62 62 59 56 53 52 50 50 51 52 51
48 43 40 38 37 34 32 31 31 31 29 28 28 29 32 35 35 32 29 27 25 22 20 19 17 15 15 15 14 13 16 22 28 33 39 45 51 57 64 68 72 76 80 83 83 83 83 84 83 83 81 80 77 75 74 74 73 71 68 65 64 63 62 61 60 59 57 56 54 53 53 53 53 53
45 41 37 36 35 33 32 30 30 29 28 27 27 30 34 38 37 34 31 29 26 24 22 21 19 17 16 15 14 12 13 19 26 32 39 45 51 57 63 68 72 75 80 83 84 84 84 83 83 83 82 80 78 76 76 76 75 73 71 69 66 64 63 61 60 59 59 58 57 55 55 55 54 53
42 39 36 35 34 33 31 29 28 28 27 26 27 32 37 41 39 36 33 31 28 26 25 23 21 19 17 16 14 12 13 16 23 30 38 45 52 58 63 68 71 75 78 81 83 84 83 82 81 81 80 79 77 76 76 76 76 74 73 72 70 67 64 62 61 60 61 61 59 58 56 56 55 54
39 36 34 34 34 33 31 28 27 26 27 27 28 33 40 43 42 39 35 33 30 29 27 25 23 21 20 18 16 14 14 16 20 28 37 45 52 59 64 68 71 73 75 77 79 80 80 79 78 79 79 78 77 77 77 77 75 74 74 74 72 69 66 64 63 62 61 62 62 61 58 57 56 54
37 35 34 34 34 33 31 29 27 26 27 27 29 35 43 46 45 42 38 34 32 31 30 29 25 23 23 21 19 17 17 17 18 24 34 43 52 60 66 70 73 74 73 73 74 76 77 78 79 79 79 78 78 78 78 77 76 75 75 73 71 69 67 66 65 63 62 62 63 63 61 58 56 55
36 35 34 33 33 32 32 31 28 26 28 28 30 36 45 49 48 46 41 37 35 34 33 32 29 26 25 25 23 22 21 20 19 22 30 41 52 62 69 73 76 76 74 72 72 74 76 77 78 79 79 79 78 78 78 77 77 76 74 72 70 69 68 68 67 65 64 62 63 64 64 61 57 56
36 35 34 33 31 31 32 32 29 27 28 30 32 38 47 52 52 49 45 41 38 36 35 34 32 30 28 28 27 26 25 23 22 22 27 37 50 62 70 76 78 78 76 74 73 74 74 74 75 77 78 79 79 78 79 79 78 76 73 70 69 68 68 68 68 67 66 64 63 63 65 65 63 60
36 35 33 32 30 29 30 30 30 29 29 31 34 39 48 54 55 52 49 44 41 39 38 36 35 33 31 31 30 30 29 27 25 25 27 34 45 59 70 76 79 80 78 76 74 73 72 71 71 72 74 76 77 78 78 77 75 71 69 67 67 67 68 68 69 68 67 67 65 65 66 67 67 66
36 35 33 31 30 29 28 29 29 29 30 32 35 40 48 55 58 56 52 48 45 43 41 39 37 36 34 34 33 33 32 30 28 28 29 33 41 53 66 75 80 81 81 79 76 74 72 70 69 69 70 71 72 72 72 70 67 65 64 65 66 67 68 69 69 69 68 68 68 68 68 68 70 70
35 34 33 31 29 28 28 28 29 29 30 33 36 40 48 56 61 60 57 53 49 46 45 43 41 39 37 36 36 36 35 33 31 31 31 34 39 48 59 71 79 83 83 81 79 77 75 73 71 70 70 70 70 70 69 67 63 62 64 65 65 66 68 69 69 69 69 68 69 69 70 70 71 73
Wind_Direction
286 279 274 270 266 264 261 259 257 255 253 251 250 248 248 249 250 251 249 247 245 244 241 239 240 240 239 237 235 234 233 232 232 230 228 228 227 224 224 223 222 224 226 228 227 226 226 226 226 226 226 226 227 227 227 227 226 226 226 226 225 223 222 221 221 220 220 220 221 221 221 221 223 224
289 284 279 275 270 267 264 262 260 257 254 252 250 249 248 248 249 251 251 250 247 244 243 242 239 239 240 239 236 234 233 233 233 231 230 229 228 225 224 224 223 223 225 227 228 227 226 225 225 226 227 226 226 227 227 227 227 226 226 226 226 226 224 223 223 222 222 222 224 224 225 225 226 227
294 289 285 282 277 272 268 265 262 260 257 255 252 250 248 248 249 250 252 253 251 246 243 243 241 239 239 240 239 236 234 233 232 231 231 230 229 227 224 224 224 224 225 227 228 228 226 224 224 225 227 227 226 226 227 227 227 226 226 226 227 227 227 226 225 224 224 224 225 226 227 228 228 229
298 295 291 289 285 280 276 271 267 263 260 257 254 252 249 248 248 249 250 252 253 251 246 243 242 241 239 239 240 238 235 233 232 231 230 231 230 228 225 224 225 225 226 227 229 229 226 223 223 225 226 228 228 227 227 227 227 226 226 226 226 227 228 227 227 226 226 226 226 227 229 230 230 231
301 299 296 294 291 287 284 279 274 268 263 260 257 254 252 250 249 249 249 250 252 253 251 246 242 241 240 239 239 239 237 234 232 230 230 230 231 229 225 224 225 226 226 227 229 230 227 223 223 225 226 228 229 228 227 227 227 227 227 227 227 228 229 229 228 228 227 227 227 228 229 231 232 233
304 302 300 299 297 293 289 286 282 276 269 264 259 256 254 252 251 250 250 250 250 252 252 250 245 241 239 239 239 239 238 236 233 230 229 229 230 230 227 225 224 225 226 227 228 228 226 223 223 224 225 228 229 228 227 227 227 227 228 229 229 229 230 231 230 230 229 228 229 229 229 231 232 233
307 304 303 302 301 297 293 291 287 282 276 270 264 259 256 254 253 252 251 251 250 250 251 251 249 244 239 238 238 238 238 237 234 231 229 228 228 229 229 226 224 225 226 227 227 227 225 223 222 223 224 226 228 228 228 228 227 227 228 230 231 232 232 232 232 232 231 230 230 230 230 231 232 234
310 306 304 304 303 300 297 295 292 286 281 276 270 264 259 256 254 253 252 252 251 251 251 251 250 246 241 238 237 236 237 237 235 231 229 228 227 228 229 228 226 225 226 226 226 225 224 222 222 222 223 225 227 229 229 229 228 227 228 230 232 233 234 235 235 234 233 232 232 231 231 231 232 233
312 310 309 309 307 303 301 301 297 291 284 280 275 269 265 260 257 255 253 252 251 251 251 251 250 248 243 239 236 235 235 236 235 232 229 228 227 226 227 228 227 225 224 225 225 224 223 222 221 222 223 224 226 229 230 230 229 229 229 230 231 233 234 235 236 236 235 234 233 233 232 231 232 233
315 315 316 316 312 306 303 303 301 295 287 282 278 273 269 265 261 258 256 253 252 250 250 250 250 248 244 240 236 233 233 234 234 232 229 228 226 225 225 227 228 226 223 223 223 223 222 221 221 221 222 223 225 227 229 230 230 230 230 230 231 232 233 235 236 237 237 236 235 234 234 233 232 233
321 320 320 320 316 310 306 304 301 297 291 285 281 277 274 269 265 262 259 256 253 251 249 247 247 248 245 241 236 233 231 231 232 231 229 227 226 224 223 225 226 226 223 222 222 221 220 220 221 221 222 223 225 226 228 230 231 230 230 230 230 231 232 233 235 236 237 237 236 235 235 234 233 234
321 320 320 320 318 315 311 306 302 298 294 290 285 282 278 274 270 266 262 259 256 253 250 246 245 245 245 242 236 232 229 229 230 230 228 227 225 223 222 223 224 224 223 222 222 221 220 220 220 221 222 223 224 226 228 229 229 230 230 230 230 230 231 232 234 236 237 238 238 237 237 236 234 234
318 320 321 322 322 320 316 311 305 300 296 293 290 286 283 279 275 271 267 262 258 254 251 247 244 244 244 242 237 232 229 227 228 229 227 226 224 222 220 220 222 223 222 221 220 220 219 219 220 221 221 222 224 225 226 227 228 229 230 230 230 230 231 232 234 237 239 240 240 239 239 237 236 235
319 322 324 325 325 324 320 315 309 303 298 295 292 289 287 284 280 276 271 266 261 256 252 247 244 242 241 240 237 232 228 225 226 227 226 225 223 221 219 219 220 221 220 220 219 219 218 218 218 219 220 221 223 224 225 226 228 229 229 229 229 230 231 233 235 237 238 239 240 240 240 239 237 235
321 323 325 326 326 326 323 318 312 307 302 298 294 291 289 286 283 279 275 269 263 258 253 248 243 240 238 237 235 232 228 224 224 225 225 224 223 221 219 218 219 220 219 218 218 218 218 218 218 218 220 221 223 224 225 228 230 229 229 229 229 230 231 232 234 236 236 238 240 241 242 241 239 236
322 323 324 325 326 325 323 319 314 310 306 301 296 293 291 288 285 281 276 271 266 260 254 249 244 239 236 234 232 231 228 223 222 223 224 224 222 220 218 217 218 219 218 217 217 217 218 218 218 219 221 223 224 224 226 228 229 228 227 228 228 228 230 231 232 234 236 239 242 244 244 243 240 236
321 323 324 325 325 324 322 318 314 311 308 304 299 295 293 290 286 282 276 272 267 261 256 250 244 238 234 232 230 229 227 222 220 221 222 223 222 219 217 217 217 217 217 217 216 216 217 218 218 219 221 223 223 224 226 227 227 226 226 226 226 226 228 229 230 232 236 240 244 246 246 245 241 237
321 322 323 324 324 323 320 317 314 312 309 305 300 297 294 291 287 282 277 271 266 261 256 251 244 237 233 231 229 227 226 223 219 219 220 221 221 219 216 216 216 216 216 216 216 216 217 217 218 219 220 221 222 222 224 225 225 225 224 224 224 225 226 227 229 232 236 240 244 247 247 245 242 238
320 321 321 322 322 321 319 317 314 311 308 304 301 298 295 292 288 284 278 272 265 260 256 251 245 237 232 230 228 227 226 223 219 217 218 220 221 219 216 215 216 216 215 215 216 216 216 216 216 218 219 219 220 221 222 223 223 223 223 222 222 222 224 226 229 233 237 241 244 247 247 244 241 237
319 319 320 320 320 320 318 317 314 311 307 304 300 298 296 293 290 286 280 272 265 258 254 251 245 238 231 229 227 226 226 224 220 217 217 219 220 219 216 215 216 216 214 214 215 216 216 215 215 217 218 218 218 219 220 222 222 222 222 221 221 222 224 227 231 234 237 241 244 246 245 242 239 235
317 318 318 319 319 318 317 316 314 311 307 303 300 299 296 294 291 287 280 272 264 257 253 250 246 240 233 229 227 226 225 224 221 217 216 217 219 219 217 215 215 215 214 213 213 214 215 214 214 216 217 216 216 218 220 221 221 220 220 220 221 223 225 228 232 234 237 239 243 245 244 240 236 233
316 317 317 318 318 317 316 315 313 310 306 303 301 299 297 294 292 287 279 272 264 256 251 248 246 241 235 230 227 225 225 224 222 218 216 216 217 219 218 216 215 215 213 212 213 214 215 214 214 216 217 216 216 217 219 221 220 219 218 219 221 223 226 228 231 234 236 238 240 242 242 239 235 232
315 315 316 316 316 315 315 314 312 309 305 302 301 299 296 294 291 285 278 271 262 253 247 246 246 242 237 233 229 225 224 224 222 219 216 215 215 217 218 217 216 215 213 212 213 214 215 214 214 216 217 216 216 217 219 220 219 217 218 219 221 223 225 228 231 234 235 237 239 240 241 239 237 234
314 314 314 315 314 314 314 314 312 307 302 300 299 298 295 293 288 282 275 268 260 251 245 244 244 243 239 236 232 227 223 223 222 220 217 215 214 215 218 218 216 214 213 212 212 214 215 215 214 215 216 216 216 218 219 218 217 217 218 220 221 223 226 228 231 234 236 237 238 239 241 240 238 236
312 312 312 312 313 312 313 313 310 305 299 297 297 295 293 290 285 279 272 265 257 250 246 244 244 244 242 239 235 230 225 223 222 221 218 215 213 214 217 218 216 214 213 211 211 213 216 215 214 214 215 216 217 218 218 217 217 218 220 221 222 224 227 229 232 234 236 237 237 237 239 240 239 238
310 310 310 310 311 311 311 310 307 301 296 295 295 293 291 287 281 275 269 262 254 248 246 246 246 246 245 241 237 231 227 223 222 221 219 216 214 213 216 218 216 214 213 211 210 212 215 216 214 214 215 217 218 217 217 217 218 219 221 222 224 226 228 230 232 234 235 235 235 235 238 239 238 238
308 308 308 308 309 309 309 306 302 297 294 293 293 291 288 283 276 270 263 257 252 248 247 248 248 248 246 243 238 232 228 224 222 221 219 216 214 213 215 217 216 215 213 211 209 211 214 215 215 215 215 217 218 218 218 218 219 222 224 225 226 228 230 231 232 232 233 233 234 235 237 237 237 237
306 306 306 306 307 307 305 301 297 293 292 291 291 289 285 278 270 263 256 251 249 249 247 246 247 248 248 245 240 233 228 224 222 220 219 217 214 213 214 216 216 215 213 211 209 210 213 214 215 216 216 218 219 219 219 220 221 223 225 226 227 229 231 232 231 230 231 233 234 235 236 236 236 237
304 304 304 304 304 304 300 296 293 291 289 289 288 286 282 272 263 254 247 245 246 245 243 244 246 249 249 248 244 236 228 224 221 220 219 217 215 213 213 215 215 215 213 210 209 210 211 213 214 215 217 218 220 221 221 221 223 224 225 226 228 229 231 231 230 229 231 233 233 235 236 236 235 236
302 302 301 301 301 299 295 292 290 289 287 287 285 283 277 265 253 243 239 241 240 238 238 241 244 247 249 248 245 238 230 224 221 219 218 217 215 214 213 214 214 214 212 210 209 209 211 212 213 214 216 218 221 222 221 222 223 224 225 227 228 228 229 230 231 232 233 233 234 236 236 235 234 235
300 300 300 299 297 294 291 290 289 287 285 284 282 278 271 256 240 232 233 235 235 233 235 237 241 244 245 244 243 237 230 225 220 218 218 216 214 213 213 213 213 213 211 210 209 209 210 211 211 211 212 215 218 219 218 219 222 224 225 226 227 227 228 230 232 233 232 233 234 235 234 234 234 233
299 298 298 296 293 290 289 288 287 285 284 282 278 272 262 244 229 224 226 229 229 229 231 234 238 242 242 241 239 235 230 224 220 217 216 215 213 212 212 213 213 212 211 209 208 208 209 210 210 210 210 211 214 215 215 218 221 223 224 225 225 226 226 228 229 230 230 232 233 233 232 233 234 234
297 296 294 291 288 287 287 287 285 283 281 279 274 266 250 231 219 217 220 224 224 224 226 230 237 241 240 238 237 233 228 223 218 215 214 213 212 210 210 211 211 211 210 209 208 208 209 209 209 210 211 212 214 217 218 220 222 223 223 224 225 226 226 226 227 229 230 232 233 234 232 233 233 233
295 293 290 287 285 285 285 285 283 280 278 275 268 258 239 221 212 211 216 220 221 218 219 225 231 236 237 236 234 231 226 220 215 212 210 209 209 208 208 208 208 208 209 209 208 208 209 210 211 212 213 215 217 219 221 223 224 224 224 224 225 227 227 227 228 230 231 232 234 235 233 232 232 232
293 291 288 285 284 283 284 283 280 277 274 269 262 249 230 213 207 208 213 218 217 214 215 220 222 225 229 230 226 226 224 217 211 208 207 206 205 205 205 206 205 205 206 208 208 208 209 210 211 213 215 217 219 221 222 223 223 224 224 224 225 227 228 228 229 230 231 231 233 234 233 232 232 232
293 290 286 283 282 281 281 279 276 273 270 264 255 242 223 209 204 206 211 216 216 212 213 217 216 213 217 218 215 219 223 215 208 205 205 204 203 202 202 202 203 203 204 206 207 208 209 210 212 214 215 217 220 222 223 224 223 224 224 225 226 227 228 229 230 230 230 230 231 234 234 234 233 233
291 288 283 280 278 278 277 275 274 271 265 258 249 235 218 206 203 204 210 215 216 213 211 214 214 210 208 206 203 213 225 218 208 203 203 202 201 200 199 199 200 201 203 205 206 207 208 211 213 215 216 218 220 221 223 225 225 225 226 227 228 229 230 229 230 230 230 230 231 233 234 233 233 233
287 283 279 276 275 275 273 272 271 268 261 253 243 229 214 205 202 203 209 215 218 214 211 211 212 211 208 201 194 206 227 224 210 204 202 201 201 199 197 197 198 200 202 205 206 207 208 210 213 216 218 219 221 222 224 226 227 227 228 229 230 232 232 232 232 232 232 231 232 232 233 233 233 234
283 279 275 273 272 273 271 270 269 264 257 249 238 224 212 204 201 202 207 214 218 215 212 210 209 210 210 202 192 202 225 227 214 207 203 200 199 198 196 195 197 199 202 205 207 208 208 210 213 216 218 219 221 223 224 226 227 228 230 230 231 233 235 235 234 234 233 233 232 232 232 233 233 233
281 277 273 271 272 272 271 268 265 259 251 244 234 221 210 204 201 202 205 211 216 216 213 211 208 208 210 205 196 201 219 225 218 210 204 200 198 197 196 195 195 198 201 203 206 208 209 211 213 216 218 220 221 223 225 227 229 230 231 232 233 235 237 237 235 234 234 234 233 232 232 232 232 231
281 276 273 271 270 271 271 267 262 253 245 239 230 219 210 204 202 202 203 207 212 215 214 212 208 207 209 208 201 200 209 219 220 214 207 202 198 196 196 196 196 196 199 202 205 207 210 212 214 216 218 220 222 224 226 228 229 231 233 234 236 237 237 237 235 234 234 234 233 232 232 232 231 231
283 279 275 272 270 269 268 265 259 250 241 235 228 218 209 204 202 201 202 205 209 213 214 213 210 207 208 208 205 200 202 210 217 217 211 205 200 197 197 198 197 197 198 201 204 207 209 212 215 218 220 222 223 225 227 229 230 232 235 236 236 236 236 236 236 235 234 233 233 233 233 232 231 232
284 280 277 274 270 267 264 261 256 248 239 231 225 218 210 204 202 201 202 203 206 210 213 214 212 209 207 208 207 203 199 203 211 216 215 209 203 200 199 199 199 198 199 201 203 206 209 211 214 217 220 223 224 225 227 229 230 231 232 233 233 234 234 235 236 236 235 235 235 235 234 234 233 234
283 280 277 274 270 266 262 258 253 247 238 230 224 218 211 205 202 201 201 202 203 206 210 212 213 212 209 208 208 206 200 200 207 214 215 212 207 203 202 201 200 200 201 202 204 205 206 208 210 214 217 221 224 225 226 228 229 230 230 230 231 232 233 234 235 236 237 237 236 237 236 235 235 235
281 279 277 273 270 265 261 257 252 245 238 230 224 218 212 207 203 201 201 201 202 204 207 209 211 213 212 210 210 208 204 201 206 213 216 213 209 205 204 203 202 201 201 203 205 206 206 206 207 210 214 218 222 224 226 228 231 230 229 229 230 231 232 233 234 235 236 237 237 237 236 236 235 235
Height
10780 10779 10779 10779 10779 10779 10779 10779 10778 10778 10779 10780 10781 10781 10782 10782 10781 10781 10781 10783 10786 10790 10792 10792 10794 10797 10800 10804 10809 10813 10816 10818 10822 10829 10833 10836 10838 10841 10844 10847 10851 10855 10858 10862 10866 10870 10873 10876 10879 10882 10884 10887 10890 10892 10895 10897 10899 10901 10904 10907 10909 10911 10913 10916 10918 10920 10923 10925 10927 10929 10931 10932 10934 10935
10774 10774 10774 10773 10773 10772 10772 10772 10771 10771 10771 10772 10773 10773 10775 10775 10775 10774 10773 10773 10776 10781 10783 10784 10787 10789 10791 10794 10798 10803 10806 10809 10813 10820 10825 10828 10831 10834 10837 10841 10844 10848 10852 10856 10860 10863 10867 10870 10873 10877 10879 10882 10885 10888 10891 10893 10895 10897 10900 10902 10905 10907 10910 10912 10914 10917 10919 10921 10923 10926 10928 10929 10931 10933
10769 10769 10768 10768 10766 10766 10766 10765 10764 10764 10764 10765 10765 10766 10767 10768 10768 10767 10766 10764 10765 10771 10774 10775 10778 10782 10783 10784 10788 10792 10796 10799 10804 10811 10816 10820 10823 10827 10831 10835 10838 10842 10846 10849 10853 10856 10860 10864 10868 10871 10874 10877 10880 10883 10886 10889 10892 10894 10896 10898 10901 10903 10906 10908 10910 10913 10915 10917 10919 10922 10924 10926 10928 10929
10764 10763 10763 10762 10760 10759 10758 10759 10758 10757 10757 10758 10758 10758 10759 10760 10760 10760 10759 10757 10755 10758 10764 10767 10769 10773 10776 10776 10778 10781 10785 10789 10795 10802 10807 10811 10815 10820 10825 10829 10832 10835 10839 10842 10846 10849 10853 10857 10862 10865 10869 10872 10875 10878 10882 10885 10888 10890 10892 10894 10896 10899 10901 10904 10906 10908 10911 10913 10915 10918 10920 10922 10924 10926
10759 10758 10757 10757 10755 10753 10752 10751 10750 10749 10749 10750 10750 10750 10750 10751 10752 10752 10752 10751 10748 10747 10752 10757 10761 10764 10767 10768 10769 10771 10775 10779 10786 10793 10798 10801 10806 10812 10817 10821 10825 10828 10831 10835 10839 10843 10847 10851 10855 10860 10864 10867 10871 10874 10877 10880 10883 10886 10888 10890 10892 10895 10897 10899 10901 10903 10906 10908 10911 10913 10915 10918 10920 10922
10755 10753 10752 10751 10750 10748 10746 10744 10742 10741 10740 10741 10742 10742 10742 10742 10743 10744 10743 10743 10742 10739 10740 10745 10751 10755 10758 10759 10760 10763 10765 10769 10776 10783 10788 10792 10797 10803 10809 10813 10817 10820 10824 10828 10832 10836 10840 10844 10849 10854 10858 10862 10865 10869 10872 10875 10878 10881 10884 10886 10888 10890 10892 10895 10897 10899 10901 10904 10906 10908 10911 10913 10915 10917
10750 10749 10747 10746 10744 10741 10738 10736 10734 10732 10731 10732 10732 10733 10733 10733 10733 10734 10734 10733 10733 10732 10730 10732 10738 10745 10749 10749 10751 10754 10755 10758 10766 10773 10778 10783 10789 10794 10800 10805 10809 10813 10817 10821 10825 10829 10833 10838 10843 10847 10852 10856 10860 10864 10867 10870 10873 10876 10879 10881 10883 10885 10888 10890 10892 10894 10896 10899 10901 10904 10906 10909 10911 10913
10745 10743 10741 10739 10737 10734 10731 10728 10725 10722 10720 10721 10722 10723 10723 10723 10723 10723 10723 10723 10723 10722 10721 10721 10725 10732 10738 10740 10741 10744 10746 10748 10755 10763 10767 10773 10780 10786 10791 10797 10802 10806 10810 10814 10818 10823 10827 10832 10836 10841 10846 10850 10854 10858 10861 10865 10868 10870 10873 10876 10878 10880 10883 10885 10887 10889 10891 10894 10896 10898 10901 10904 10906 10908
10739 10737 10735 10732 10729 10726 10723 10719 10716 10713 10710 10710 10711 10713 10713 10713 10713 10712 10713 10712 10712 10711 10710 10710 10712 10719 10726 10729 10730 10734 10737 10739 10744 10752 10757 10763 10771 10777 10783 10788 10793 10797 10802 10807 10812 10816 10820 10825 10830 10835 10840 10844 10848 10852 10856 10859 10862 10865 10868 10870 10873 10875 10877 10880 10882 10884 10886 10888 10891 10893 10896 10899 10901 10903
10734 10732 10729 10726 10723 10719 10715 10711 10707 10703 10701 10700 10700 10702 10702 10702 10702 10701 10701 10701 10700 10700 10699 10698 10700 10705 10713 10718 10719 10723 10728 10729 10733 10740 10746 10752 10760 10768 10774 10779 10784 10789 10794 10800 10805 10809 10814 10819 10824 10829 10833 10837 10842 10846 10849 10853 10857 10860 10863 10865 10867 10870 10872 10874 10877 10879 10881 10883 10886 10888 10891 10893 10896 10898
10729 10726 10723 10720 10716 10712 10707 10703 10698 10694 10691 10690 10690 10691 10691 10690 10690 10690 10689 10688 10688 10687 10687 10687 10688 10692 10699 10705 10708 10712 10717 10719 10722 10728 10735 10741 10749 10758 10765 10771 10776 10781 10788 10793 10798 10803 10808 10812 10817 10822 10827 10832 10836 10840 10844 10848 10851 10854 10857 10860 10862 10864 10867 10869 10872 10874 10876 10879 10881 10883 10886 10888 10891 10893
10724 10720 10716 10712 10707 10703 10698 10694 10690 10686 10683 10681 10680 10680 10679 10679 10678 10677 10677 10676 10676 10674 10674 10675 10677 10680 10685 10692 10697 10701 10706 10709 10712 10717 10724 10731 10738 10747 10756 10762 10767 10774 10781 10787 10792 10797 10802 10807 10812 10816 10822 10826 10831 10834 10838 10842 10846 10849 10851 10854 10856 10859 10861 10864 10867 10869 10872 10874 10876 10878 10880 10883 10886 10888
10716 10712 10708 10703 10698 10693 10689 10685 10682 10679 10675 10672 10670 10669 10668 10668 10667 10666 10665 10664 10663 10662 10661 10663 10666 10669 10673 10680 10685 10690 10694 10699 10702 10707 10715 10721 10727 10736 10745 10752 10758 10765 10772 10778 10784 10790 10795 10801 10806 10811 10816 10820 10824 10828 10833 10836 10839 10842 10845 10848 10851 10854 10857 10860 10863 10865 10868 10870 10872 10874 10876 10878 10880 10883
10705 10702 10698 10693 10689 10685 10680 10676 10673 10670 10667 10664 10661 10659 10657 10657 10656 10655 10654 10652 10651 10650 10649 10650 10655 10659 10662 10668 10674 10678 10684 10689 10693 10698 10705 10711 10717 10726 10736 10743 10748 10755 10763 10769 10776 10782 10788 10793 10799 10804 10809 10813 10817 10822 10827 10830 10833 10836 10840 10843 10847 10850 10853 10856 10858 10861 10863 10865 10867 10869 10870 10872 10875 10877
10694 10692 10688 10684 10681 10676 10672 10667 10664 10661 10659 10656 10653 10650 10648 10647 10646 10644 10643 10641 10640 10639 10638 10639 10644 10648 10651 10656 10662 10667 10674 10680 10685 10689 10696 10702 10707 10716 10726 10733 10739 10746 10754 10761 10767 10773 10779 10786 10792 10798 10802 10806 10811 10816 10820 10824 10828 10832 10835 10839 10842 10846 10849 10851 10854 10856 10858 10860 10862 10864 10865 10867 10869 10871
10685 10682 10679 10676 10672 10668 10664 10659 10655 10652 10649 10646 10643 10640 10639 10638 10636 10634 10632 10630 10629 10629 10628 10629 10633 10638 10641 10645 10650 10656 10662 10670 10675 10680 10686 10692 10698 10707 10717 10723 10730 10737 10744 10752 10760 10765 10772 10779 10786 10791 10795 10799 10804 10809 10813 10818 10823 10827 10830 10834 10838 10841 10844 10846 10849 10851 10853 10855 10857 10859 10860 10862 10863 10865
10676 10673 10670 10666 10663 10659 10655 10651 10647 10643 10639 10636 10633 10630 10629 10628 10627 10624 10623 10621 10620 10619 10619 10620 10624 10628 10631 10635 10639 10645 10651 10658 10665 10670 10676 10682 10689 10698 10707 10714 10719 10726 10736 10745 10752 10758 10765 10774 10780 10785 10789 10793 10797 10802 10807 10812 10817 10821 10825 10829 10832 10836 10839 10841 10844 10846 10849 10851 10852 10854 10855 10856 10858 10860
10667 10664 10661 10657 10653 10649 10646 10643 10639 10635 10631 10627 10623 10621 10619 10618 10617 10615 10614 10612 10611 10611 10611 10612 10615 10619 10622 10625 10630 10635 10640 10647 10654 10660 10666 10672 10679 10689 10698 10704 10709 10718 10729 10739 10746 10752 10760 10768 10774 10778 10781 10785 10790 10795 10801 10807 10811 10815 10820 10824 10827 10830 10834 10836 10839 10841 10844 10846 10847 10849 10850 10851 10853 10854
10659 10656 10653 10650 10645 10640 10637 10634 10632 10627 10623 10619 10615 10612 10610 10609 10608 10607 10605 10604 10604 10603 10603 10603 10606 10610 10614 10617 10621 10625 10630 10636 10644 10651 10657 10663 10670 10679 10689 10696 10701 10710 10722 10732 10739 10746 10752 10760 10767 10769 10772 10777 10784 10789 10796 10801 10806 10810 10814 10818 10821 10825 10828 10831 10834 10836 10839 10841 10843 10844 10846 10847 10848 10849
10651 10648 10646 10642 10638 10633 10629 10626 10623 10619 10614 10611 10608 10604 10601 10599 10599 10598 10597 10596 10596 10596 10595 10596 10598 10602 10606 10609 10613 10616 10621 10627 10635 10643 10650 10656 10663 10671 10680 10687 10693 10702 10713 10724 10732 10737 10743 10752 10759 10759 10762 10771 10778 10784 10790 10795 10800 10804 10809 10812 10816 10819 10822 10826 10829 10831 10834 10836 10838 10840 10841 10842 10844 10845
10642 10640 10637 10634 10630 10626 10622 10618 10614 10609 10605 10603 10600 10596 10592 10590 10590 10589 10589 10588 10589 10589 10589 10589 10591 10594 10598 10601 10605 10608 10613 10619 10626 10635 10642 10649 10657 10665 10672 10677 10683 10692 10703 10715 10723 10728 10734 10744 10750 10751 10756 10766 10773 10778 10784 10789 10794 10799 10803 10807 10811 10814 10817 10821 10823 10827 10829 10832 10834 10835 10837 10838 10840 10841
10633 10630 10628 10626 10622 10618 10615 10611 10606 10601 10596 10594 10593 10589 10584 10582 10581 10581 10581 10581 10582 10583 10582 10583 10584 10587 10591 10594 10597 10601 10606 10611 10619 10627 10634 10641 10649 10657 10662 10668 10674 10683 10696 10708 10717 10722 10727 10736 10742 10745 10751 10760 10767 10772 10778 10783 10788 10793 10797 10801 10805 10809 10812 10816 10819 10822 10824 10827 10829 10831 10832 10834 10836 10837
10624 10621 10619 10617 10614 10610 10607 10604 10599 10593 10588 10586 10585 10582 10577 10574 10574 10574 10574 10574 10575 10576 10576 10577 10578 10580 10583 10586 10589 10594 10599 10604 10611 10618 10625 10632 10640 10648 10653 10659 10666 10678 10691 10701 10709 10715 10719 10726 10733 10739 10745 10754 10760 10764 10770 10777 10782 10787 10792 10796 10800 10804 10808 10811 10814 10817 10819 10821 10824 10826 10828 10830 10831 10833
10614 10612 10609 10608 10605 10602 10599 10596 10591 10586 10581 10579 10577 10575 10570 10568 10567 10567 10567 10568 10569 10569 10570 10571 10572 10573 10576 10579 10582 10587 10592 10597 10603 10609 10615 10623 10632 10640 10645 10650 10659 10671 10682 10690 10700 10706 10708 10715 10725 10732 10739 10747 10753 10758 10765 10772 10777 10782 10787 10791 10795 10799 10802 10806 10809 10811 10814 10816 10819 10822 10824 10826 10827 10828
10605 10602 10600 10598 10597 10594 10591 10588 10584 10578 10574 10572 10571 10568 10564 10562 10560 10560 10561 10562 10563 10563 10564 10565 10566 10567 10570 10573 10575 10580 10585 10590 10595 10601 10607 10614 10624 10632 10636 10641 10651 10662 10670 10680 10691 10697 10700 10708 10719 10727 10734 10742 10748 10753 10761 10767 10772 10777 10781 10785 10789 10792 10796 10800 10803 10806 10809 10812 10815 10817 10819 10821 10823 10824
10597 10594 10591 10589 10588 10585 10583 10580 10576 10571 10567 10565 10564 10562 10558 10556 10555 10554 10555 10557 10558 10558 10559 10560 10561 10562 10564 10566 10569 10573 10578 10583 10587 10593 10599 10606 10615 10623 10627 10631 10641 10651 10658 10669 10681 10688 10693 10702 10712 10721 10730 10736 10741 10748 10755 10761 10766 10770 10774 10778 10782 10786 10790 10794 10797 10800 10803 10806 10809 10812 10814 10817 10818 10820
10588 10585 10582 10580 10578 10576 10574 10572 10568 10564 10560 10558 10557 10555 10552 10550 10549 10550 10551 10552 10553 10554 10555 10556 10556 10558 10559 10560 10563 10567 10571 10575 10580 10585 10591 10598 10606 10613 10617 10622 10631 10639 10647 10660 10674 10682 10688 10697 10707 10717 10725 10730 10736 10744 10750 10755 10760 10764 10768 10772 10776 10780 10785 10789 10792 10795 10798 10801 10804 10807 10810 10812 10813 10815
10578 10575 10573 10571 10569 10568 10566 10563 10560 10557 10554 10552 10550 10548 10547 10545 10545 10545 10546 10548 10548 10550 10551 10552 10552 10553 10554 10555 10557 10561 10564 10568 10572 10577 10582 10588 10596 10602 10608 10614 10623 10630 10641 10656 10670 10677 10684 10693 10703 10713 10720 10726 10733 10740 10744 10749 10753 10757 10762 10767 10771 10775 10779 10783 10786 10789 10792 10795 10799 10802 10804 10806 10808 10811
10569 10566 10564 10561 10560 10559 10557 10554 10552 10550 10548 10545 10543 10542 10541 10540 10541 10542 10543 10543 10545 10546 10547 10548 10549 10550 10550 10551 10552 10555 10558 10561 10565 10570 10574 10580 10587 10594 10600 10607 10615 10625 10638 10652 10663 10672 10680 10689 10699 10708 10715 10722 10728 10733 10737 10742 10746 10751 10756 10761 10765 10770 10774 10777 10780 10784 10787 10790 10793 10795 10798 10801 10804 10807
10559 10557 10555 10552 10551 10550 10547 10545 10544 10542 10540 10539 10537 10535 10535 10536 10536 10538 10539 10540 10541 10543 10544 10545 10546 10546 10547 10547 10548 10550 10553 10556 10559 10563 10568 10573 10580 10587 10594 10601 10609 10620 10633 10646 10657 10666 10674 10684 10694 10703 10710 10717 10722 10726 10731 10735 10739 10744 10750 10754 10759 10764 10767 10771 10774 10777 10780 10783 10786 10790 10793 10796 10799 10801
10549 10548 10546 10544 10542 10540 10538 10538 10537 10535 10533 10533 10531 10530 10530 10531 10533 10534 10535 10536 10538 10539 10540 10541 10542 10543 10543 10543 10544 10546 10548 10550 10554 10558 10562 10567 10574 10581 10588 10596 10604 10614 10627 10639 10650 10659 10669 10678 10688 10695 10702 10708 10712 10715 10721 10727 10732 10737 10743 10747 10752 10756 10760 10764 10767 10770 10774 10777 10780 10784 10788 10790 10792 10794
10539 10538 10537 10535 10532 10530 10530 10530 10529 10527 10527 10527 10526 10525 10526 10527 10529 10531 10532 10534 10535 10536 10537 10538 10539 10539 10540 10540 10540 10542 10543 10545 10549 10553 10557 10562 10569 10577 10585 10593 10602 10612 10623 10635 10645 10655 10663 10672 10680 10686 10691 10696 10700 10705 10713 10720 10725 10730 10735 10740 10744 10748 10753 10757 10760 10763 10767 10771 10774 10778 10780 10783 10786 10788
10530 10529 10528 10526 10523 10522 10523 10523 10521 10521 10521 10521 10520 10520 10521 10523 10525 10527 10529 10531 10532 10533 10534 10535 10535 10536 10536 10537 10537 10538 10539 10542 10545 10548 10552 10558 10565 10573 10580 10588 10598 10609 10620 10631 10642 10651 10658 10666 10673 10679 10685 10691 10698 10704 10710 10714 10718 10722 10727 10732 10737 10741 10745 10749 10753 10757 10761 10765 10768 10771 10774 10776 10779 10781
10522 10522 10520 10517 10515 10514 10515 10515 10515 10515 10515 10515 10515 10515 10517 10519 10521 10523 10526 10527 10529 10530 10531 10532 10532 10533 10534 10534 10535 10535 10536 10538 10541 10545 10548 10553 10560 10568 10575 10583 10592 10603 10615 10626 10636 10645 10654 10662 10669 10676 10682 10688 10693 10697 10701 10706 10710 10715 10720 10726 10730 10734 10738 10743 10747 10751 10755 10759 10762 10764 10767 10770 10772 10775
10512 10512 10511 10508 10507 10507 10508 10508 10508 10508 10509 10509 10509 10510 10512 10515 10517 10520 10522 10524 10525 10527 10528 10529 10530 10530 10531 10532 10532 10533 10534 10535 10538 10542 10544 10549 10555 10562 10570 10578 10588 10599 10610 10621 10631 10640 10648 10656 10664 10670 10676 10681 10685 10688 10692 10696 10701 10707 10714 10719 10723 10726 10731 10737 10741 10745 10749 10753 10756 10758 10761 10763 10765 10768
10501 10502 10502 10500 10500 10501 10501 10502 10502 10502 10503 10503 10504 10506 10508 10511 10513 10516 10518 10520 10522 10523 10525 10526 10527 10528 10529 10530 10530 10531 10531 10533 10536 10539 10542 10546 10552 10558 10566 10575 10584 10595 10605 10615 10624 10634 10642 10649 10655 10661 10668 10673 10678 10682 10684 10688 10693 10701 10707 10711 10715 10719 10725 10730 10735 10739 10743 10747 10749 10751 10754 10756 10758 10761
10492 10493 10493 10493 10493 10494 10495 10496 10496 10496 10497 10498 10499 10501 10504 10506 10509 10512 10515 10517 10519 10520 10522 10523 10524 10525 10526 10527 10528 10529 10530 10531 10533 10537 10540 10544 10549 10555 10563 10571 10581 10591 10599 10607 10615 10624 10633 10641 10648 10655 10661 10666 10671 10675 10678 10682 10688 10695 10700 10704 10709 10713 10718 10724 10729 10732 10735 10739 10742 10745 10747 10749 10752 10756
10486 10486 10486 10486 10486 10487 10488 10489 10490 10490 10491 10492 10494 10496 10499 10502 10505 10508 10511 10513 10515 10517 10519 10520 10521 10522 10524 10525 10526 10528 10529 10530 10532 10535 10538 10542 10547 10552 10560 10569 10578 10586 10594 10602 10610 10618 10627 10636 10644 10650 10656 10661 10666 10669 10672 10676 10683 10689 10694 10697 10702 10706 10712 10718 10722 10725 10728 10732 10735 10738 10741 10744 10747 10750
10479 10480 10480 10479 10479 10480 10481 10482 10483 10484 10485 10486 10489 10491 10494 10497 10501 10504 10507 10509 10511 10513 10515 10517 10518 10519 10521 10523 10524 10526 10528 10529 10530 10533 10536 10540 10545 10551 10558 10567 10576 10584 10591 10599 10607 10616 10625 10633 10638 10643 10648 10654 10659 10662 10665 10670 10677 10682 10686 10689 10695 10700 10706 10711 10714 10717 10721 10725 10728 10731 10735 10738 10741 10745
10472 10472 10472 10472 10472 10472 10473 10475 10476 10478 10479 10480 10483 10486 10489 10492 10496 10499 10502 10505 10508 10509 10511 10513 10515 10516 10518 10520 10522 10525 10527 10528 10529 10531 10535 10538 10543 10549 10556 10564 10572 10580 10588 10596 10605 10613 10620 10625 10629 10634 10640 10646 10650 10655 10659 10665 10670 10673 10677 10682 10689 10694 10698 10702 10706 10710 10713 10717 10721 10725 10728 10731 10735 10738
10464 10465 10465 10465 10465 10465 10466 10467 10469 10471 10472 10474 10477 10480 10483 10487 10491 10494 10498 10501 10503 10505 10507 10510 10512 10513 10515 10517 10519 10522 10525 10527 10528 10530 10533 10536 10541 10547 10553 10559 10566 10574 10583 10592 10599 10605 10611 10617 10622 10628 10634 10639 10644 10649 10653 10658 10662 10666 10671 10678 10683 10686 10690 10693 10697 10701 10705 10709 10713 10718 10721 10724 10728 10731
10457 10457 10457 10457 10458 10458 10459 10460 10462 10464 10466 10468 10470 10474 10477 10481 10485 10489 10493 10496 10499 10501 10503 10506 10508 10510 10512 10514 10516 10519 10522 10524 10527 10528 10531 10534 10539 10544 10549 10555 10562 10571 10579 10586 10592 10598 10605 10611 10617 10622 10627 10632 10637 10641 10645 10649 10654 10659 10665 10671 10675 10678 10681 10685 10688 10693 10697 10701 10706 10710 10713 10716 10720 10722
10449 10449 10449 10450 10451 10452 10453 10454 10456 10458 10460 10461 10464 10467 10471 10475 10479 10483 10487 10491 10494 10497 10499 10502 10504 10506 10508 10510 10513 10515 10518 10521 10524 10526 10528 10531 10535 10540 10545 10552 10559 10567 10574 10580 10587 10594 10601 10607 10611 10616 10620 10624 10629 10633 10637 10641 10647 10652 10657 10662 10665 10669 10672 10676 10680 10684 10689 10693 10697 10701 10704 10707 10711 10713
10442 10442 10443 10443 10444 10446 10447 10448 10449 10451 10453 10455 10458 10461 10465 10469 10473 10477 10481 10485 10489 10492 10495 10497 10500 10502 10504 10507 10509 10511 10514 10517 10520 10523 10526 10528 10532 10536 10541 10547 10554 10561 10568 10574 10580 10587 10593 10599 10603 10607 10612 10617 10622 10626 10630 10634 10640 10645 10650 10653 10657 10660 10664 10667 10672 10676 10680 10684 10687 10690 10694 10698 10701 10703
10437 10436 10436 10437 10439 10440 10441 10442 10443 10445 10447 10449 10452 10455 10459 10463 10467 10471 10475 10479 10482 10486 10490 10492 10495 10497 10500 10502 10505 10507 10510 10513 10516 10519 10522 10524 10528 10532 10537 10542 10548 10555 10561 10568 10574 10579 10584 10589 10595 10600 10605 10610 10615 10620 10624 10627 10632 10637 10640 10644 10648 10652 10655 10658 10663 10667 10671 10674 10678 10681 10684 10688 10691 10693